Weather in Jessore

Bangladesh     23°09′47″N   89°12′10″E
temp.,
°C
wind,
m/s
gust,
m/s
humid.,
%
clouds,
%
prec.,
mm/h
press.,
hPa
HPBL,
m
16 october, sat
sat1600:00+27n1281100 1.8 100313
03:00+25ssw3595100 7.8 1003117
06:00+26ne118963 7.8 100311
09:00+29e227592 0.0 1006431
12:00+32e1164100 0.0 10041047
15:00+32ene2265100 1.7 10021083
18:00+29ese2280100 3.1 100314
21:00+26s3692100 5.9 1006141
17 october, sun
sun1700:00+26s2490100 7.3 1006101
03:00+26se2491100 0.0 1005115
06:00+26ese4986100 1.6 1006196
09:00+25ene3691100 0.3 1008206
12:00+28e3478100 0.4 1006416
15:00+30ese5674100 2.6 1004962
18:00+26se3891100 3.9 1005241
21:00+26ese31191100 0.1 1007418
18 october, mon
mon1800:00+25ese3109496 1.2 1007325
03:00+25e5129091 1.2 1005517
06:00+25ese6159033 2.1 1006563
09:00+28se7108168 0.0 1007850
12:00+27ese91389100 5.1 10051029
15:00+24se91497100 20.8 1001772
18:00+25se51096100 27.8 1005426
21:00+25se51095100 0.4 1007386
19 october, tue
tue1900:00+24ese3697100 1.9 1007206
03:00+24s3999100 5.8 1005457
06:00+24sse4899100 21.2 1007319
09:00+24sse4997100 17.0 1009491
12:00+24sse51197100 42.2 1008630
15:00+25s41196100 11.8 1006573
18:00+24s61097100 21.1 1007437
21:00+24sse4998100 2.9 1009371
20 october, wed
wed2000:00+24s41196100 3.6 1008568
03:00+24ssw41195100 1.8 1007526
06:00+24s3896100 2.4 1009287
09:00+24ssw31195100 2.5 1011584
12:00+25sw3791100 3.4 1009416
15:00+25ssw3791100 2.3 1007219
18:00+24sse3894100 2.4 1008244
21:00+25s3996100 2.3 1009249